TimeCDT,TemperatureF,Dew PointF,Humidity,Sea Level PressureIn,VisibilityMPH,Wind Direction,Wind SpeedMPH,Gust SpeedMPH,PrecipitationIn,Events,Conditions,WindDirDegrees,DateUTC
12:15 AM,63.7,57.6,80,29.88,10.0,NW,10.4,-,N/A,,Mostly Cloudy,320,2013-07-10 05:15:00
12:35 AM,63.9,57.2,79,29.88,10.0,WNW,6.9,-,N/A,,Mostly Cloudy,300,2013-07-10 05:35:00
12:55 AM,62.4,56.8,82,29.89,10.0,WNW,10.4,-,N/A,,Scattered Clouds,300,2013-07-10 05:55:00
1:15 AM,62.1,56.5,82,29.90,10.0,WNW,8.1,-,N/A,,Clear,290,2013-07-10 06:15:00
1:35 AM,61.2,55.8,82,29.90,10.0,WNW,5.8,-,N/A,,Clear,300,2013-07-10 06:35:00
1:55 AM,61.0,55.4,82,29.90,10.0,WNW,8.1,-,N/A,,Clear,290,2013-07-10 06:55:00
2:15 AM,60.8,55.0,81,29.90,10.0,West,4.6,-,N/A,,Clear,280,2013-07-10 07:15:00
2:55 AM,59.9,54.5,82,29.91,10.0,West,5.8,-,N/A,,Clear,280,2013-07-10 07:55:00
3:15 AM,59.5,54.5,83,29.91,10.0,West,6.9,-,N/A,,Clear,280,2013-07-10 08:15:00
3:35 AM,59.2,54.1,83,29.91,10.0,WNW,10.4,-,N/A,,Clear,290,2013-07-10 08:35:00
3:55 AM,58.5,54.0,85,29.92,10.0,WNW,9.2,-,N/A,,Clear,300,2013-07-10 08:55:00
4:15 AM,58.3,53.8,85,29.92,10.0,WNW,11.5,-,N/A,,Clear,300,2013-07-10 09:15:00
4:35 AM,58.1,53.8,86,29.93,10.0,WNW,10.4,-,N/A,,Clear,300,2013-07-10 09:35:00
4:55 AM,58.1,53.8,86,29.94,10.0,WNW,12.7,-,N/A,,Clear,300,2013-07-10 09:55:00
5:15 AM,57.6,54.0,88,29.94,10.0,WNW,11.5,-,N/A,,Clear,300,2013-07-10 10:15:00
5:35 AM,57.4,54.0,88,29.95,10.0,WNW,9.2,-,N/A,,Clear,290,2013-07-10 10:35:00
5:55 AM,57.4,54.3,90,29.95,10.0,WNW,10.4,-,N/A,,Clear,290,2013-07-10 10:55:00
6:15 AM,57.9,54.5,88,29.96,10.0,WNW,10.4,-,N/A,,Clear,290,2013-07-10 11:15:00
6:35 AM,58.3,54.7,88,29.96,10.0,WNW,10.4,-,N/A,,Clear,300,2013-07-10 11:35:00
6:55 AM,59.2,54.9,86,29.96,10.0,WNW,11.5,-,N/A,,Clear,300,2013-07-10 11:55:00
7:15 AM,60.1,55.4,85,29.96,10.0,WNW,11.5,-,N/A,,Clear,300,2013-07-10 12:15:00
7:35 AM,61.0,55.4,82,29.97,10.0,NW,15.0,19.6,N/A,,Clear,310,2013-07-10 12:35:00
7:55 AM,62.4,55.4,78,29.98,10.0,NW,13.8,20.7,N/A,,Clear,310,2013-07-10 12:55:00
8:15 AM,63.5,55.4,75,29.99,10.0,NW,12.7,17.3,N/A,,Clear,310,2013-07-10 13:15:00
8:35 AM,64.4,55.0,72,29.99,10.0,NW,13.8,19.6,N/A,,Clear,310,2013-07-10 13:35:00
8:55 AM,65.1,55.2,70,29.99,10.0,NW,11.5,-,N/A,,Clear,310,2013-07-10 13:55:00
9:15 AM,66.2,55.9,69,30.00,10.0,NW,12.7,-,N/A,,Clear,310,2013-07-10 14:15:00
9:35 AM,66.9,55.8,67,30.00,10.0,NW,11.5,-,N/A,,Clear,320,2013-07-10 14:35:00
9:55 AM,67.8,55.6,65,30.00,10.0,NW,10.4,16.1,N/A,,Scattered Clouds,320,2013-07-10 14:55:00
10:15 AM,68.9,54.5,60,30.00,10.0,NW,15.0,-,N/A,,Scattered Clouds,320,2013-07-10 15:15:00
10:35 AM,69.8,54.7,59,30.00,10.0,NW,16.1,-,N/A,,Scattered Clouds,320,2013-07-10 15:35:00
10:55 AM,69.6,54.5,59,30.00,10.0,NNW,10.4,19.6,N/A,,Scattered Clouds,330,2013-07-10 15:55:00
11:15 AM,71.1,54.9,56,30.00,10.0,NW,13.8,-,N/A,,Scattered Clouds,310,2013-07-10 16:15:00
11:35 AM,71.8,53.4,52,30.01,10.0,NNW,13.8,20.7,N/A,,Scattered Clouds,340,2013-07-10 16:35:00
11:55 AM,70.9,53.2,54,30.01,10.0,NW,13.8,18.4,N/A,,Scattered Clouds,310,2013-07-10 16:55:00
12:15 PM,72.5,53.2,51,30.01,10.0,NNW,13.8,19.6,N/A,,Scattered Clouds,330,2013-07-10 17:15:00
12:35 PM,73.4,53.6,50,30.01,10.0,North,11.5,19.6,N/A,,Mostly Cloudy,350,2013-07-10 17:35:00
12:55 PM,72.9,53.4,50,30.00,10.0,NNW,11.5,18.4,N/A,,Scattered Clouds,330,2013-07-10 17:55:00
1:15 PM,74.8,52.3,45,30.00,10.0,North,11.5,20.7,N/A,,Scattered Clouds,350,2013-07-10 18:15:00
1:35 PM,74.8,53.4,47,29.99,10.0,NNW,11.5,18.4,N/A,,Mostly Cloudy,330,2013-07-10 18:35:00
1:55 PM,75.6,52.9,45,29.99,10.0,NNW,12.7,18.4,N/A,,Scattered Clouds,340,2013-07-10 18:55:00
2:15 PM,76.3,53.1,44,29.99,10.0,NW,15.0,19.6,N/A,,Scattered Clouds,310,2013-07-10 19:15:00
2:35 PM,76.6,52.7,43,29.99,10.0,NW,15.0,21.9,N/A,,Scattered Clouds,320,2013-07-10 19:35:00
2:55 PM,77.0,52.7,43,29.98,10.0,NW,12.7,16.1,N/A,,Clear,320,2013-07-10 19:55:00
3:15 PM,77.9,53.4,43,29.98,10.0,NNW,11.5,19.6,N/A,,Scattered Clouds,340,2013-07-10 20:15:00
3:35 PM,77.7,52.5,41,29.98,10.0,NNW,15.0,19.6,N/A,,Clear,340,2013-07-10 20:35:00
3:55 PM,77.0,52.9,43,29.97,10.0,NNW,12.7,-,N/A,,Scattered Clouds,330,2013-07-10 20:55:00
4:15 PM,77.7,53.1,42,29.97,10.0,NW,12.7,20.7,N/A,,Scattered Clouds,320,2013-07-10 21:15:00
4:35 PM,77.9,53.8,43,29.96,10.0,NW,13.8,18.4,N/A,,Scattered Clouds,310,2013-07-10 21:35:00
4:55 PM,77.9,53.6,43,29.96,10.0,NW,8.1,-,N/A,,Clear,310,2013-07-10 21:55:00
5:15 PM,76.8,53.8,45,29.96,10.0,NW,8.1,-,N/A,,Clear,310,2013-07-10 22:15:00
5:35 PM,75.0,53.2,47,29.96,10.0,NW,8.1,-,N/A,,Scattered Clouds,310,2013-07-10 22:35:00
5:55 PM,73.9,54.0,50,29.96,10.0,NW,11.5,-,N/A,,Overcast,320,2013-07-10 22:55:00
6:15 PM,74.1,54.1,50,29.97,10.0,NW,11.5,-,N/A,,Overcast,320,2013-07-10 23:15:00
6:35 PM,74.3,54.5,50,29.97,10.0,NW,10.4,17.3,N/A,,Overcast,310,2013-07-10 23:35:00
6:55 PM,73.4,54.7,52,29.97,10.0,NW,8.1,-,N/A,,Overcast,310,2013-07-10 23:55:00
7:15 PM,72.0,55.2,55,29.98,10.0,NW,9.2,-,N/A,,Scattered Clouds,310,2013-07-11 00:15:00
7:35 PM,71.1,56.3,60,29.98,10.0,NW,8.1,-,N/A,,Clear,310,2013-07-11 00:35:00
7:55 PM,70.5,56.1,60,29.98,10.0,NW,8.1,-,N/A,,Mostly Cloudy,320,2013-07-11 00:55:00
8:15 PM,70.5,55.4,59,29.99,10.0,NNW,9.2,-,N/A,,Overcast,330,2013-07-11 01:15:00
8:35 PM,70.2,56.1,61,29.99,10.0,NW,9.2,-,N/A,,Scattered Clouds,320,2013-07-11 01:35:00
8:55 PM,69.4,55.4,61,29.99,10.0,NNW,9.2,-,N/A,,Mostly Cloudy,330,2013-07-11 01:55:00
9:15 PM,69.8,52.7,54,30.00,10.0,NNW,11.5,17.3,N/A,,Overcast,340,2013-07-11 02:15:00
9:35 PM,68.5,52.9,57,30.01,10.0,North,8.1,-,N/A,,Overcast,350,2013-07-11 02:35:00
9:55 PM,67.5,53.1,60,30.01,10.0,NNW,6.9,-,N/A,Rain,Light Rain,340,2013-07-11 02:55:00
10:15 PM,65.8,53.6,65,30.01,10.0,NNW,5.8,-,N/A,,Scattered Clouds,340,2013-07-11 03:15:00
10:35 PM,65.3,53.1,65,30.01,10.0,West,3.5,-,N/A,,Clear,270,2013-07-11 03:35:00
10:55 PM,66.2,53.4,63,30.02,10.0,West,3.5,-,N/A,,Clear,280,2013-07-11 03:55:00
11:15 PM,64.4,53.8,68,30.02,10.0,West,3.5,-,N/A,,Clear,280,2013-07-11 04:15:00
11:35 PM,62.1,53.8,74,30.02,10.0,SW,3.5,-,N/A,,Clear,230,2013-07-11 04:35:00
11:55 PM,57.7,53.4,85,30.03,10.0,Calm,Calm,-,N/A,,Clear,0,2013-07-11 04:55:00